TimeGMT,TemperatureF,Dew PointF,Humidity,Sea Level PressureIn,VisibilityMPH,Wind Direction,Wind SpeedMPH,Gust SpeedMPH,PrecipitationIn,Events,Conditions,WindDirDegrees,DateUTC
12:50 AM,41.0,39.2,93,29.62,6.2,West,10.4,-,N/A,,Partly Cloudy,280,2012-12-26 00:50:00
1:50 AM,41.0,39.2,93,29.65,6.2,West,15.0,-,N/A,,Mostly Cloudy,280,2012-12-26 01:50:00
2:50 AM,42,38,79,29.72,28,West,18.4,,,,Scattered Clouds,280,2012-12-26 02:50:00
2:50 AM,41.0,37.4,87,29.68,6.2,West,18.4,-,N/A,,Partly Cloudy,280,2012-12-26 02:50:00
3:50 AM,41.0,37.4,87,29.71,6.2,West,12.7,-,N/A,,Unknown,270,2012-12-26 03:50:00
4:50 AM,41.0,37.4,87,29.71,6.2,SW,9.2,-,N/A,,Scattered Clouds,230,2012-12-26 04:50:00
5:50 AM,41,38,85,29.75,13,SW,12.7,,,,,220,2012-12-26 05:50:00
5:50 AM,41.0,37.4,87,29.71,6.2,SW,12.7,-,N/A,,Unknown,220,2012-12-26 05:50:00
6:50 AM,41.0,39.2,93,29.71,6.2,SSW,12.7,-,N/A,,Scattered Clouds,210,2012-12-26 06:50:00
7:50 AM,42.8,41.0,93,29.71,6.2,SW,10.4,-,N/A,Rain,Light Rain,220,2012-12-26 07:50:00
8:50 AM,44,41,83,29.78,11,WSW,11.5,,,Rain,Rain,240,2012-12-26 08:50:00
8:50 AM,44.6,41.0,87,29.74,6.2,WSW,11.5,-,N/A,,Scattered Clouds,240,2012-12-26 08:50:00
9:50 AM,46.4,41.0,81,29.77,6.2,WSW,11.5,-,N/A,,Mostly Cloudy,250,2012-12-26 09:50:00
10:50 AM,46.4,42.8,87,29.74,6.2,WSW,10.4,-,N/A,,Scattered Clouds,240,2012-12-26 10:50:00
11:50 AM,47,44,86,29.75,9,SSW,12.7,,,,Scattered Clouds,200,2012-12-26 11:50:00
11:50 AM,46.4,44.6,93,29.74,6.2,SSW,12.7,-,N/A,,Mostly Cloudy,200,2012-12-26 11:50:00
12:50 PM,50.0,46.4,87,29.68,6.2,SW,19.6,-,N/A,,Scattered Clouds,220,2012-12-26 12:50:00
1:50 PM,48.2,44.6,87,29.62,6.2,SW,27.6,-,N/A,Rain,Rain Showers,220,2012-12-26 13:50:00
2:50 PM,48,46,92,29.61,9,SSW,19.6,,,Rain,Light Rain,210,2012-12-26 14:50:00
2:50 PM,48.2,46.4,93,29.59,6.2,SSW,19.6,-,N/A,Rain,Light Rain,210,2012-12-26 14:50:00
3:50 PM,50.0,48.2,94,29.56,6.2,SW,19.6,-,N/A,,Mostly Cloudy,220,2012-12-26 15:50:00
4:50 PM,50.0,46.4,87,29.53,6.2,WSW,19.6,-,N/A,Rain,Light Rain Showers,240,2012-12-26 16:50:00
5:50 PM,50,46,80,29.56,14,WSW,18.4,,,Rain,Rain,240,2012-12-26 17:50:00
5:50 PM,50.0,46.4,87,29.53,6.2,WSW,18.4,-,N/A,,Scattered Clouds,240,2012-12-26 17:50:00
6:50 PM,48.2,41.0,76,29.56,6.2,West,21.9,33.4,N/A,,Mostly Cloudy,270,2012-12-26 18:50:00
7:50 PM,46.4,41.0,81,29.59,6.2,West,15.0,-,N/A,,Mostly Cloudy,270,2012-12-26 19:50:00
8:50 PM,46,40,72,29.64,7,West,12.7,,,,Scattered Clouds,260,2012-12-26 20:50:00
8:50 PM,46.4,39.2,76,29.62,6.2,West,12.7,-,N/A,,Mostly Cloudy,260,2012-12-26 20:50:00
9:50 PM,46.4,39.2,76,29.62,6.2,West,15.0,-,N/A,,Mostly Cloudy,260,2012-12-26 21:50:00
10:50 PM,46.4,39.2,76,29.62,6.2,WSW,13.8,-,N/A,,Mostly Cloudy,250,2012-12-26 22:50:00
11:50 PM,45,39,74,29.66,8,WSW,12.7,,,,Mostly Cloudy,240,2012-12-26 23:50:00
11:50 PM,44.6,39.2,81,29.65,6.2,WSW,12.7,-,N/A,,Mostly Cloudy,240,2012-12-26 23:50:00